GFSNIL_prec_precacc_210.txt.gz
Total_Precipitation_Accumulation
0.22 0.22 0.39 0.67 0.90 0.87 0.83 0.83 0.54 0.59 0.63 0.56 0.38 0.28 0.38 0.30 0.16 0.15 0.23 0.16 0.08 0.08
0.20 0.16 0.17 0.59 0.77 0.57 0.71 0.90 1.10 0.61 0.54 0.59 0.47 0.33 0.45 0.29 0.27 0.37 0.45 0.20 0.11 0.06
0.18 0.18 0.24 0.39 0.49 0.63 0.77 1.98 1.92 1.19 0.71 0.66 0.59 0.67 0.69 0.29 0.35 0.44 0.39 0.10 0.27 0.30
0.35 0.17 0.18 0.24 0.38 0.54 0.67 0.88 0.96 1.50 0.96 1.14 1.07 1.03 1.20 0.99 0.89 0.93 0.76 0.34 0.48 0.47
0.98 0.79 0.48 0.34 0.33 0.47 0.59 0.67 0.83 0.91 1.21 1.37 1.08 1.57 1.28 1.10 1.03 0.97 0.78 0.76 1.00 0.52
1.26 1.11 1.07 0.90 0.90 0.62 0.53 0.69 0.78 0.90 1.12 1.10 1.06 1.32 1.51 1.54 1.20 0.86 0.74 0.74 0.88 0.81
1.59 1.38 1.20 1.34 1.74 1.85 1.35 1.17 0.84 0.66 0.78 0.74 0.88 0.88 1.07 1.44 1.72 1.20 0.82 1.33 1.37 1.32
2.72 2.12 2.09 2.04 2.54 2.81 2.03 1.70 1.36 1.28 1.19 1.14 1.12 1.03 1.11 1.06 1.24 1.31 1.22 1.30 1.67 1.57
2.89 2.69 2.08 1.91 1.79 1.96 1.85 2.03 2.36 1.67 1.49 1.76 1.77 1.73 1.17 1.05 1.14 1.45 1.37 1.31 1.42 1.25
2.15 1.75 1.48 1.52 1.65 1.58 1.83 2.00 1.77 1.74 1.76 1.70 1.96 1.59 1.27 1.39 1.37 1.41 1.46 1.43 1.43 1.16
2.05 2.06 1.72 1.42 1.21 1.24 1.51 1.71 1.94 1.52 1.32 2.17 1.84 2.53 2.24 2.07 1.59 1.17 1.22 1.18 1.06 1.04
1.82 1.52 1.55 1.50 1.53 1.53 1.60 1.48 1.62 1.84 2.12 2.38 2.38 2.55 2.26 2.05 1.58 1.27 1.12 1.19 0.97 0.90
3.82 2.75 2.17 2.44 2.64 2.74 2.82 2.48 2.55 3.21 3.16 3.09 2.51 2.78 2.49 1.76 1.30 1.28 1.25 0.99 0.84 1.25
3.77 4.24 3.78 3.88 3.85 3.75 3.82 3.90 3.52 3.69 3.09 2.87 2.44 2.16 1.93 1.80 1.19 0.90 1.15 0.92 0.66 0.56

GFSNIL_prec_precacc_216.txt.gz
Total_Precipitation_Accumulation
0.22 0.24 0.44 0.69 0.94 0.87 0.83 0.84 0.54 0.62 0.80 0.64 0.57 0.50 0.57 0.51 0.30 0.17 0.25 0.17 0.08 0.08
0.21 0.18 0.19 0.62 0.87 0.58 0.72 0.90 1.10 0.71 0.78 0.68 0.55 0.47 0.63 0.42 0.39 0.50 0.54 0.23 0.12 0.06
0.21 0.19 0.24 0.41 0.52 0.65 0.78 1.99 1.99 1.29 0.86 0.77 0.67 0.83 0.92 0.43 0.49 0.66 0.45 0.11 0.28 0.32
0.35 0.17 0.18 0.24 0.40 0.56 0.68 0.88 1.00 1.72 1.14 1.28 1.21 1.15 1.41 1.23 1.18 1.19 0.91 0.43 0.54 0.56
0.99 0.79 0.48 0.34 0.33 0.48 0.60 0.68 0.85 0.94 1.29 1.45 1.18 1.67 1.50 1.27 1.13 1.13 0.87 0.81 1.07 0.57
1.36 1.15 1.09 0.91 0.90 0.63 0.53 0.69 0.79 0.92 1.13 1.10 1.06 1.33 1.56 1.62 1.24 0.96 0.86 0.82 0.94 0.86
1.65 1.41 1.22 1.37 1.77 1.87 1.36 1.17 0.84 0.66 0.78 0.74 0.88 0.88 1.09 1.50 1.77 1.20 0.82 1.34 1.41 1.37
2.74 2.13 2.11 2.07 2.58 2.83 2.05 1.71 1.36 1.28 1.20 1.14 1.13 1.03 1.11 1.06 1.25 1.33 1.22 1.30 1.68 1.58
2.89 2.69 2.09 1.93 1.81 1.97 1.86 2.03 2.36 1.67 1.49 1.76 1.77 1.73 1.17 1.05 1.16 1.48 1.41 1.32 1.43 1.25
2.15 1.75 1.48 1.52 1.66 1.59 1.84 2.01 1.77 1.75 1.76 1.70 1.96 1.59 1.27 1.40 1.37 1.42 1.48 1.48 1.45 1.17
2.06 2.06 1.72 1.43 1.21 1.24 1.51 1.71 1.94 1.52 1.32 2.17 1.84 2.53 2.24 2.10 1.60 1.17 1.23 1.19 1.08 1.05
1.82 1.52 1.55 1.50 1.54 1.54 1.61 1.48 1.62 1.85 2.12 2.38 2.38 2.55 2.27 2.09 1.58 1.27 1.12 1.19 0.98 0.92
3.82 2.75 2.17 2.44 2.64 2.74 2.82 2.49 2.57 3.23 3.18 3.12 2.52 2.78 2.49 1.76 1.30 1.28 1.25 0.99 0.84 1.25
3.77 4.24 3.78 3.88 3.85 3.75 3.82 3.91 3.53 3.71 3.11 2.94 2.51 2.21 1.95 1.80 1.20 0.90 1.15 0.92 0.66 0.56

GFSNIL_prec_precacc_219.txt.gz
Total_Precipitation_Accumulation
0.23 0.26 0.46 0.73 0.97 0.88 0.83 0.84 0.54 0.62 0.86 0.69 0.64 0.55 0.61 0.57 0.35 0.18 0.27 0.18 0.08 0.08
0.21 0.18 0.20 0.62 0.89 0.59 0.72 0.90 1.10 0.71 0.81 0.70 0.55 0.47 0.69 0.46 0.41 0.56 0.66 0.32 0.15 0.07
0.21 0.19 0.24 0.44 0.56 0.65 0.78 1.99 2.00 1.34 0.87 0.77 0.68 0.83 0.98 0.49 0.55 0.71 0.47 0.12 0.30 0.35
0.36 0.17 0.18 0.25 0.44 0.60 0.71 0.90 1.01 1.77 1.20 1.32 1.22 1.16 1.44 1.27 1.21 1.23 0.91 0.43 0.65 0.70
1.06 0.86 0.51 0.45 0.43 0.59 0.70 0.77 0.90 0.96 1.31 1.47 1.19 1.67 1.51 1.27 1.13 1.13 0.88 0.81 1.11 0.67
1.41 1.20 1.16 1.00 0.99 0.73 0.66 0.82 0.90 0.98 1.18 1.13 1.09 1.36 1.57 1.62 1.24 0.96 0.86 0.82 0.98 0.92
1.69 1.43 1.24 1.40 1.80 1.92 1.43 1.25 0.94 0.78 0.87 0.83 0.93 0.91 1.12 1.52 1.78 1.21 0.82 1.34 1.45 1.42
2.74 2.14 2.12 2.08 2.59 2.84 2.05 1.71 1.38 1.29 1.21 1.19 1.21 1.06 1.14 1.09 1.27 1.34 1.23 1.31 1.70 1.61
2.90 2.70 2.09 1.93 1.81 1.97 1.86 2.03 2.36 1.67 1.49 1.76 1.77 1.73 1.18 1.15 1.23 1.52 1.44 1.38 1.51 1.33
2.17 1.77 1.49 1.52 1.66 1.59 1.84 2.01 1.77 1.75 1.76 1.70 1.96 1.59 1.28 1.46 1.45 1.48 1.52 1.50 1.52 1.22
2.07 2.08 1.75 1.45 1.22 1.25 1.52 1.72 1.94 1.52 1.32 2.17 1.84 2.53 2.24 2.11 1.63 1.19 1.25 1.20 1.10 1.08
1.83 1.53 1.57 1.53 1.55 1.56 1.63 1.50 1.63 1.85 2.12 2.38 2.38 2.55 2.27 2.09 1.59 1.27 1.12 1.20 0.98 0.93
3.83 2.76 2.18 2.47 2.65 2.75 2.85 2.50 2.58 3.23 3.18 3.12 2.52 2.78 2.49 1.76 1.31 1.28 1.25 0.99 0.85 1.25
3.77 4.24 3.79 3.90 3.88 3.77 3.84 3.93 3.56 3.73 3.12 2.94 2.51 2.21 1.95 1.80 1.21 0.91 1.16 0.92 0.66 0.56

GFSNIL_prec_precacc_222.txt.gz
Total_Precipitation_Accumulation
0.24 0.28 0.46 0.75 0.98 0.88 0.83 0.85 0.54 0.63 0.89 0.78 0.76 0.59 0.69 0.62 0.38 0.19 0.28 0.19 0.08 0.08
0.24 0.21 0.23 0.66 0.94 0.60 0.72 0.90 1.10 0.73 0.87 0.80 0.66 0.57 0.77 0.51 0.42 0.57 0.66 0.32 0.15 0.07
0.32 0.27 0.28 0.51 0.61 0.71 0.81 2.02 2.02 1.40 0.93 0.86 0.78 0.89 1.05 0.52 0.55 0.73 0.47 0.12 0.30 0.37
0.43 0.32 0.36 0.39 0.52 0.67 0.81 1.03 1.10 1.87 1.27 1.43 1.33 1.28 1.54 1.35 1.29 1.29 0.95 0.45 0.67 0.73
1.11 0.96 0.69 0.76 0.60 0.71 0.80 0.87 1.03 1.15 1.47 1.61 1.30 1.78 1.58 1.32 1.19 1.22 0.93 0.83 1.22 0.72
1.52 1.25 1.28 1.13 1.05 0.77 0.69 0.86 0.95 1.06 1.28 1.22 1.18 1.47 1.66 1.70 1.29 1.03 0.92 0.91 1.04 0.99
1.69 1.45 1.27 1.44 1.85 1.98 1.46 1.27 0.96 0.81 0.91 0.88 1.00 0.99 1.19 1.58 1.83 1.25 0.85 1.40 1.47 1.44
2.74 2.14 2.13 2.09 2.60 2.87 2.07 1.72 1.38 1.30 1.22 1.21 1.25 1.09 1.18 1.18 1.32 1.41 1.29 1.37 1.73 1.62
2.90 2.70 2.10 1.95 1.83 1.98 1.86 2.03 2.36 1.67 1.49 1.76 1.77 1.73 1.18 1.19 1.28 1.61 1.57 1.44 1.56 1.37
2.18 1.78 1.52 1.56 1.69 1.61 1.86 2.02 1.78 1.75 1.76 1.70 1.96 1.59 1.28 1.48 1.46 1.51 1.57 1.57 1.64 1.27
2.08 2.09 1.76 1.47 1.25 1.27 1.54 1.73 1.96 1.55 1.34 2.18 1.84 2.53 2.24 2.12 1.63 1.19 1.26 1.22 1.14 1.12
1.84 1.54 1.58 1.54 1.57 1.58 1.66 1.51 1.65 1.88 2.14 2.39 2.38 2.55 2.27 2.10 1.59 1.27 1.12 1.20 0.99 0.94
3.83 2.76 2.19 2.48 2.67 2.77 2.87 2.52 2.60 3.25 3.20 3.14 2.52 2.78 2.49 1.76 1.31 1.29 1.26 0.99 0.85 1.25
3.77 4.24 3.79 3.90 3.88 3.78 3.85 3.94 3.57 3.74 3.12 2.94 2.54 2.22 1.95 1.80 1.21 0.93 1.20 0.96 0.67 0.56